Location: Les Thiberg�res
(47.8554°N, 1.0978°W)
Time: 21:51:09
(UTC+00:00)

BREEZE M DEB (TANK) - Pass Details

Date: 17 February 2020
Orbit: 298 x 14510 km, 49.6° (Epoch: 29 March)

Event Time Altitude Azimuth Distance (km) Brightness Sun altitude
Rises 04:49:02 0° 298° (WNW) 10,937 8.4 -23.9°
Enters shadow 04:54:30 - 298° (WNW) 9,284 8.0 -23.0°
Exits shadow 05:07:48 21° 290° (WNW) 4,563 6.4 -20.8°
Maximum altitude 05:15:53 45° 232° (SW) 1,717 4.4 -19.5°
Drops below altitude 10° 05:20:21 10° 158° (SSE) 2,172 5.6 -18.7°
Sets 05:21:50 0° 150° (SSE) 2,737 6.3 -18.5°
